Location: Blackie
(50.6050°N, 113.6230°W)
Time: 08:39:00
(UTC+00:00)

N. Korean satellite - Pass Details

Date: 06 December 2021
Orbit: 446 x 491 km, 97.3° (Epoch: 18 January)

Event Time Altitude Azimuth Distance (km) Brightness Sun altitude
Rises 00:17:13 0° 182° (S) 2,525 10.6 -7.1°
Reaches altitude 10° 00:19:22 10° 189° (S) 1,643 9.8 -7.4°
Maximum altitude 00:22:43 41° 261° (W) 697 8.0 -7.9°
Drops below altitude 10° 00:26:03 10° 334° (NNW) 1,630 9.3 -8.4°
Sets 00:28:10 0° 341° (NNW) 2,502 10.1 -8.7°
